Flag for U.S.A. Weather past 2 weeks in Augusta, Maine, U.S.A.

Now
6 °F

Sunny.


Feels Like: -4 °F
Forecast: 0 / 24 °F
Wind: 6 mph from North

Location: Augusta State Airport

Current Time: Jan 29, 2015 at 9:51:50 AM

Latest Report: Jan 29, 2015 at 8:53 AM


Visibility: 10 mi

Pressure: 30.31 "Hg

Humidity: 66%

Dew point: -3 °F

Location of AugustaLocation

Historic Weather in Augusta — Graph

°F

Augusta temperature yesterday

Maximum temperature yesterday: 23 °F (at 1:53 PM)
Minimum temperature yesterday: 10 °F (at 12:53 AM)
Average temperature yesterday: 15 °F

Past Weeks' High & Low Weather Summary

 TemperatureHumidityPressure
High47 °F (Jan 19, 1:53 AM)100% (Jan 18, 4:53 PM)30.56 "Hg (Jan 18, 4:53 PM)
Low-3 °F (Jan 14, 8:53 AM)25% (Jan 17, 1:53 PM)29.13 "Hg (Jan 24, 9:53 PM)
Average19 °F64%29.93 "Hg
* Reported Jan 14 8:53 AM — Jan 29 8:53 AM, Augusta, Weather by CustomWeather, © 2014

Note: Actual official high and low records may vary slightly from our data, if they occured in-between our weather recording intervals... More about our weather records

Advertising

Augusta weather history for previous 24 hours

 ConditionsComfort  
Time TempWeatherWind HumidityBarometerVisibility
8:53 AM
Jan 29
6 °FSunny.6 mph66%30.31 "Hg10 mi
7:53 AM0 °FSunny.5 mph75%30.30 "Hg10 mi
6:53 AM1 °FClear.7 mph75%30.29 "Hg10 mi
5:53 AM3 °FClear.5 mph76%30.28 "Hg10 mi
4:53 AM1 °FClear.7 mph79%30.27 "Hg10 mi
3:53 AM3 °FClear.No wind72%30.26 "Hg10 mi
2:53 AM4 °FClear.3 mph73%30.25 "Hg10 mi
1:53 AM7 °FClear.No wind66%30.26 "Hg10 mi
12:53 AM9 °FClear.3 mph61%30.22 "Hg10 mi
11:53 PM
Jan 28
10 °FClear.5 mph61%30.18 "Hg10 mi
10:53 PM12 °FClear.3 mph58%30.16 "Hg10 mi
9:53 PM14 °FClear.3 mph58%30.14 "Hg10 mi
8:53 PM15 °FClear.6 mph56%30.13 "Hg10 mi
7:53 PM16 °FClear.8 mph56%30.11 "Hg10 mi
6:53 PM18 °FClear.8 mph59%30.09 "Hg10 mi
5:53 PM20 °FClear.9 mph60%30.05 "Hg10 mi
4:53 PM20 °FClear.8 mph62%30.02 "Hg10 mi
3:53 PM21 °FSunny.15 mph60%29.98 "Hg10 mi
2:53 PM20 °FSunny.15 mph62%29.96 "Hg10 mi
1:53 PM23 °FSunny.16 mph55%29.92 "Hg10 mi
12:53 PM20 °FPassing clouds.16 mph57%29.91 "Hg10 mi
11:53 AM19 °FSunny.18 mph57%29.91 "Hg10 mi
10:53 AM16 °FScattered clouds.20 mph62%29.91 "Hg9 mi
9:53 AM14 °FMostly cloudy.14 mph67%29.90 "Hg9 mi
Weather by CustomWeather, © 2014

See weather overviewHow to use our weather pages